New Roads False River Regiona, LA

1:49 PM CDT on July 15, 2019 (GMT -0500)
False River

Weather History for KHZR - May, 2019

Change the Weather History Date:

Sunday, May 5, 2019

  Actual Average (KBTR) Record (KBTR)
Temperature  
Mean Temperature 69 °F -  
Max Temperature 78 °F 82 °F 95 °F (1952)
Min Temperature 60 °F 59 °F 45 °F (1954)
Cooling Degree Days 4    
Growing Degree Days 19 (Base 50)    
Moisture  
Dew Point 62 °F    
Average Humidity 74    
Maximum Humidity 100    
Minimum Humidity 47    
Precipitation  
Precipitation 0.00 in - - ()
Sea Level Pressure  
Sea Level Pressure 29.91 in    
Wind  
Wind Speed 4 mph (North)    
Max Wind Speed 10 mph    
Max Gust Speed -    
Visibility 10 miles    
Events      
Averages and records for this station are not official NWS values.
T = Trace of Precipitation, MM = Missing Value Source: NWS Daily Summary

Daily Weather History Graph

Daily Weather History Graph

Search for Another Location

Airport or City:

Astronomy

May. 05, 2019 Rise Set
Actual Time 6:18 AM CDT 7:47 PM CDT
Civil Twilight 5:52 AM CDT 8:12 PM CDT
Nautical Twilight 5:22 AM CDT 8:43 PM CDT
Astronomical Twilight 4:49 AM CDT 9:16 PM CDT
Moon 7:00 AM CDT (5/5) 8:40 PM CDT (5/5)
Length of Visible Light 14h 19m
Length of Day
13h 28m
New Moon, 1% of the Moon is Illuminated
May 5
New Moon
May 11
First Quarter
May 18
Full
May 26
Last Quarter
Jun 3
New

Hourly Weather History & Observations

Time (CDT) Temp. Dew Point Humidity Pressure Visibility Wind Dir Wind Speed Gust Speed Precip Events Conditions
3:35 AM 64.4 °F 62.6 °F 94% 29.88 in 10.0 mi North 6.9 mph - N/A   Scattered Clouds
6:18 AM 60.8 °F 60.8 °F 100% 29.90 in 10.0 mi Calm Calm - N/A   Clear
8:15 AM 64.4 °F 62.6 °F 94% 29.93 in 10.0 mi North 4.6 mph - N/A   Clear
8:35 AM 66.2 °F 62.6 °F 88% 29.92 in 10.0 mi North 5.8 mph - N/A   Clear
9:15 AM 68.0 °F 62.6 °F 83% 29.93 in 10.0 mi NE 3.5 mph - N/A   Clear
9:57 AM 69.8 °F 62.6 °F 78% - 10.0 mi NNE 3.5 mph - N/A   Clear
10:15 AM 69.8 °F 60.8 °F 73% 29.95 in 10.0 mi Calm Calm - N/A   Clear
10:36 AM 71.6 °F 62.6 °F 73% 29.95 in 10.0 mi NW 3.5 mph - N/A   Scattered Clouds
10:57 AM 71.6 °F 62.6 °F 73% 29.95 in 10.0 mi Calm Calm - N/A   Scattered Clouds
11:38 AM 71.6 °F 62.6 °F 73% 29.95 in 10.0 mi NW 3.5 mph - N/A   Clear
11:55 AM 71.6 °F 62.6 °F 73% 29.94 in 10.0 mi NNE 3.5 mph - N/A   Clear
1:36 PM 75.2 °F 62.6 °F 65% - 10.0 mi Calm Calm - N/A   Clear
2:16 PM 77.0 °F 64.4 °F 65% 29.92 in 10.0 mi WNW 4.6 mph - N/A   Clear
2:37 PM 77.0 °F 64.4 °F 65% 29.91 in - NW 5.8 mph - N/A   Clear
2:57 PM 77.0 °F 62.6 °F 61% 29.92 in 10.0 mi West 5.8 mph - N/A   Clear
3:57 PM 78.8 °F 60.8 °F 54% 29.89 in 10.0 mi NW 8.1 mph - N/A   Clear
4:16 PM 78.8 °F 60.8 °F 54% 29.89 in 10.0 mi NW 9.2 mph - N/A   Clear
4:57 PM 78.8 °F 60.8 °F 54% 29.89 in 10.0 mi NW 10.4 mph - N/A   Clear
5:16 PM 78.8 °F 60.8 °F 54% 29.89 in 10.0 mi NNW 6.9 mph - N/A   Clear
5:36 PM 78.8 °F 60.8 °F 54% 29.89 in 10.0 mi NNW 8.1 mph - N/A   Clear
5:57 PM 78.8 °F 57.2 °F 47% 29.89 in 10.0 mi North 6.9 mph - N/A   Clear
6:17 PM 77.0 °F 57.2 °F 50% 29.89 in 10.0 mi North 8.1 mph - N/A   Clear
6:36 PM 77.0 °F 59.0 °F 54% 29.88 in 10.0 mi North 6.9 mph - N/A   Clear
7:16 PM 75.2 °F 60.8 °F 61% 29.89 in 10.0 mi North 4.6 mph - N/A   Clear
7:36 PM 73.4 °F 60.8 °F 65% 29.89 in 10.0 mi North 4.6 mph - N/A   Clear
8:16 PM 69.8 °F 60.8 °F 73% 29.90 in 10.0 mi Calm Calm - N/A   Clear
8:37 PM 69.8 °F 60.8 °F 73% 29.92 in 10.0 mi Calm Calm - N/A   Clear
8:55 PM 68.0 °F 62.6 °F 83% 29.92 in 10.0 mi Calm Calm - N/A   Clear
9:15 PM 68.0 °F 64.4 °F 88% 29.92 in 10.0 mi Calm Calm - N/A   Clear
9:56 PM 66.2 °F 62.6 °F 88% 29.92 in 10.0 mi Calm Calm - N/A   Clear
10:16 PM 64.4 °F 62.6 °F 94% 29.92 in 10.0 mi Calm Calm - N/A   Clear
10:36 PM 64.4 °F 62.6 °F 94% 29.92 in 10.0 mi ENE 3.5 mph - N/A   Clear
10:55 PM 64.4 °F 62.6 °F 94% 29.92 in 10.0 mi ENE 3.5 mph - N/A   Clear
11:16 PM 66.2 °F 62.6 °F 88% 29.93 in 10.0 mi ENE 3.5 mph - N/A   Clear
11:36 PM 64.4 °F 62.6 °F 94% 29.92 in 10.0 mi ENE 3.5 mph - N/A   Clear
11:55 PM 64.4 °F 60.8 °F 88% 29.93 in 10.0 mi Calm Calm - N/A   Clear